Location: Unspecified
(0.0000°N, 0.0000°E)
Time: 09:04:35
(UTC+00:00)

A-11 Canister half - Pass Details

Date: 20 June 2024
Orbit: 1515 x 1684 km, 47.2° (Epoch: 23 July)

Event Time Altitude Azimuth Distance (km) Brightness Sun altitude
Exits shadow 04:48:15 19° 266° (W) 2,992 10.0 -16.8°
Maximum altitude 04:52:33 27° 228° (SW) 2,572 9.6 -15.8°
Drops below altitude 10° 05:00:02 10° 174° (S) 3,684 10.8 -14.1°
Sets 05:03:45 0° 162° (SSE) 4,681 11.5 -13.3°
